Flag for Egypt Weather past 2 weeks in Port Said, Egypt

Now
66 °F

Sunny.


Feels Like: 66 °F
Forecast: 71 / 81 °F
Wind: 16 mph from North

Location: Port Said Airport

Current Time: May 25, 2015 at 6:21:20 AM

Latest Report: May 25, 2015 at 5:00 AM


Visibility: 10 mi

Pressure: 29.89 "Hg

Humidity: 78%

Dew point: 59 °F

Location of Port SaidLocation

Historic Weather in Port Said — Graph

°F

Port Said temperature yesterday

Maximum temperature yesterday: 93 °F (at 12:00 PM)
Minimum temperature yesterday: 72 °F (at 4:00 AM)
Average temperature yesterday: 79 °F

Past Weeks' High & Low Weather Summary

 TemperatureHumidityPressure
High93 °F (May 24, 12:00 PM)100% (May 11, 9:00 AM)30.18 "Hg (May 11, 9:00 AM)
Low63 °F (May 25, 3:00 AM)24% (May 24, 12:00 PM)29.74 "Hg (May 10, 4:00 AM)
Average73 °F73%29.92 "Hg
* Reported May 10 4:00 AM — May 25 4:00 AM, Port Said, Weather by CustomWeather, © 2015

Note: Actual official high and low records may vary slightly from our data, if they occured in-between our weather recording intervals... More about our weather records

Advertising

Port Said weather history for previous 24 hours

 ConditionsComfort  
Time TempWeatherWind HumidityBarometerVisibility
4:00 AM
Mon, May 25
63 °FClear.8 mph77%29.89 "Hg10 mi
3:00 AM63 °FClear.7 mph83%29.92 "Hg10 mi
2:00 AM72 °FClear.7 mph83%29.89 "Hg10 mi
1:00 AM73 °FClear.8 mph78%29.92 "Hg10 mi
12:00 AM73 °FClear.8 mph83%29.92 "Hg10 mi
11:00 PM
Sun, May 24
73 °FClear.7 mph83%29.92 "Hg10 mi
10:00 PM75 °FClear.7 mph78%29.92 "Hg10 mi
9:00 PM77 °FClear.9 mph79%29.89 "Hg10 mi
8:00 PM79 °FClear.5 mph74%29.89 "Hg10 mi
7:00 PM81 °FClear.5 mph70%29.89 "Hg10 mi
6:00 PM82 °FSunny.8 mph66%29.89 "Hg10 mi
5:00 PM82 °FSunny.7 mph70%29.89 "Hg10 mi
4:00 PM86 °FSunny.5 mph66%29.89 "Hg10 mi
3:00 PM88 °FSunny.7 mph49%29.89 "Hg10 mi
2:00 PM86 °FSunny.10 mph35%29.89 "Hg10 mi
1:00 PM88 °FSunny.12 mph33%29.92 "Hg10 mi
12:00 PM93 °FSunny.13 mph24%29.89 "Hg10 mi
11:00 AM90 °FSunny.13 mph26%29.89 "Hg10 mi
9:00 AM82 °FSunny.6 mph37%29.92 "Hg10 mi
8:00 AM77 °FSunny.6 mph51%29.92 "Hg10 mi
7:00 AM73 °FSunny.7 mph61%29.92 "Hg10 mi
6:00 AM73 °FSunny.7 mph69%29.92 "Hg10 mi
Weather by CustomWeather, © 2015

See weather overviewHow to use our weather pages